This is the latest recevied weather packets stored in our database for station/object EA5JMY-13. If no packets are shown the sender has not sent any weather packets the latest 1 day(s).
| Time | Temp. | Humidity | Pressure | Rain* | Wind** | Luminosity | Snow |
|---|---|---|---|---|---|---|---|
| 1778089172 | 23.33° C | 42% | 1011.1 hPa | - | - | - | - |
| 1778070332 | 22.22° C | 41% | 1011.9 hPa | - | - | - | - |
| 1778064092 | 23.89° C | 35% | 1012.3 hPa | - | - | - | - |
| 1778060012 | 25.56° C | 35% | 1012.3 hPa | - | - | - | - |
| 1778057972 | 25.56° C | 35% | 1012.3 hPa | - | - | - | - |
| 1778055692 | 25° C | 36% | 1012.4 hPa | - | - | - | - |
| 1778053891 | 24.44° C | 39% | 1012.4 hPa | - | - | - | - |
| 1778053292 | 23.89° C | 41% | 1012.3 hPa | - | - | - | - |
| 1778053171 | 23.89° C | 41% | 1012.4 hPa | - | - | - | - |
| 1778052812 | 23.89° C | 41% | 1012.4 hPa | - | - | - | - |
| 1778051134 | 22.78° C | 39% | 1012.5 hPa | - | - | - | - |
| 1778050052 | 23.33° C | 40% | 1012.5 hPa | - | - | - | - |
| 1778049934 | 23.33° C | 40% | 1012.5 hPa | - | - | - | - |
| 1778048853 | 22.78° C | 40% | 1012.3 hPa | - | - | - | - |
| 1778048612 | 23.33° C | 40% | 1012.3 hPa | - | - | - | - |
| 1778047532 | 22.78° C | 40% | 1012.3 hPa | - | - | - | - |
| 1778047054 | 22.78° C | 40% | 1012.2 hPa | - | - | - | - |
| 1778046571 | 22.78° C | 40% | 1012.1 hPa | - | - | - | - |
| 1778045732 | 22.78° C | 40% | 1012.1 hPa | - | - | - | - |
| 1778045492 | 22.78° C | 41% | 1012 hPa | - | - | - | - |
| 1778045372 | 22.78° C | 40% | 1012 hPa | - | - | - | - |
| 1778045252 | 22.78° C | 41% | 1012 hPa | - | - | - | - |
| 1778045012 | 22.78° C | 41% | 1012 hPa | - | - | - | - |
| 1778044532 | 22.78° C | 41% | 1012 hPa | - | - | - | - |
| 1778044412 | 22.78° C | 41% | 1011.9 hPa | - | - | - | - |
* Rain since midnight (hover to see other rain measurements)
** Current wind speed in m/s (hover to see current wind gust speed)